EW9606 Weather Reports


time (UTC)temp
C
wind
direction
speed
KPH
gust
KPH
rain 1hr
cm
rain 24hr
cm
rain mn
cm
humidity
%
barometer
mb
20260508022607 17 273 3.2 8.0 0.00 0.00 0.00 53 1014.6
20260508022106 17 270 6.4 12.9 0.00 0.00 0.00 53 1014.7
20260508021606 17 270 1.6 9.7 0.00 0.00 0.00 53 1014.8
20260508021107 16 279 1.6 4.8 0.00 0.00 0.00 52 1014.7
20260508020606 16 202 0.0 4.8 0.00 0.00 0.00 52 1014.6
20260508020107 16 270 1.6 4.8 0.00 0.00 0.00 51 1014.6
20260508015606 16 270 1.6 4.8 0.00 0.00 0.00 50 1014.8
20260508014106 16 292 3.2 8.0 0.00 0.00 0.00 46 1014.7
20260508013607 16 270 1.6 4.8 0.00 0.00 0.00 46 1014.6
20260508013106 16 270 1.6 3.2 0.00 0.00 0.00 46 1014.7
20260508012607 16 270 1.6 3.2 0.00 0.00 0.00 46 1014.7
20260508012107 17 270 1.6 3.2 0.00 0.00 0.00 46 1014.8
20260508011606 17 256 1.6 3.2 0.00 0.00 0.00 46 1014.7
20260508011106 17 248 1.6 3.2 0.00 0.00 0.00 47 1014.7
20260508010606 17 262 1.6 3.2 0.00 0.00 0.00 48 1014.8
20260508010107 17 270 0.0 3.2 0.00 0.00 0.00 49 1014.8
20260508005606 17 248 1.6 3.2 0.00 0.00 0.00 51 1014.8
20260508004607 17 256 1.6 3.2 0.00 0.00 0.00 53 1015.0
20260508004106 17 270 1.6 4.8 0.00 0.00 0.00 53 1015.1
20260508003607 17 239 1.6 4.8 0.00 0.00 0.00 53 1015.2
20260508003106 17 256 1.6 4.8 0.00 0.00 0.00 54 1015.3
20260508002606 17 270 1.6 4.8 0.00 0.00 0.00 54 1015.3
20260508002106 17 284 1.6 4.8 0.00 0.00 0.00 54 1015.1
20260508001606 17 283 1.6 4.8 0.00 0.00 0.00 55 1015.1
20260508001106 17 270 1.6 1.6 0.00 0.00 0.00 56 1015.1
20260508000606 17 270 1.6 1.6 0.00 0.00 0.00 56 1015.2
20260508000106 17 270 1.6 3.2 0.00 0.00 0.00 56 1015.3
20260507235606 17 265 1.6 3.2 0.00 0.00 0.00 56 1015.3
20260507234606 17 270 1.6 3.2 0.00 0.00 0.00 56 1015.3
20260507234107 17 270 1.6 4.8 0.00 0.00 0.00 56 1015.3
20260507233607 17 278 1.6 4.8 0.00 0.00 0.00 56 1015.6
20260507232611 17 270 3.2 4.8 0.00 0.00 0.00 57 1015.7
20260507232107 17 270 3.2 4.8 0.00 0.00 0.00 57 1015.8
20260507231606 17 291 3.2 8.0 0.00 0.00 0.00 57 1016.0
20260507231107 17 284 3.2 4.8 0.00 0.00 0.00 57 1015.7
20260507230106 18 270 3.2 4.8 0.00 0.00 0.00 58 1015.6
20260507225607 18 284 3.2 4.8 0.00 0.00 0.00 58 1015.7
20260507225106 18 260 3.2 9.7 0.00 0.00 0.00 59 1015.8
20260507224606 18 277 3.2 9.7 0.00 0.00 0.00 61 1015.6
20260507224106 18 292 4.8 9.7 0.00 0.00 0.00 61 1015.6
20260507223606 18 284 3.2 8.0 0.00 0.00 0.00 62 1015.6
20260507223107 18 278 3.2 8.0 0.00 0.00 0.00 62 1015.8
20260507222607 18 276 3.2 4.8 0.00 0.00 0.00 63 1015.7
20260507222106 18 284 3.2 4.8 0.00 0.00 0.00 63 1015.6
20260507221106 18 285 3.2 4.8 0.00 0.00 0.00 64 1015.4
20260507220606 18 270 3.2 4.8 0.00 0.00 0.00 64 1015.7
20260507215606 17 270 3.2 4.8 0.00 0.00 0.00 64 1015.8
20260507215106 17 283 3.2 4.8 0.00 0.00 0.00 64 1015.7
20260507214606 17 292 1.6 4.8 0.00 0.00 0.00 65 1015.5
20260507214107 18 292 3.2 4.8 0.00 0.00 0.00 65 1015.7
20260507213606 18 292 1.6 8.0 0.00 0.00 0.00 65 1015.8
20260507213106 18 298 1.6 8.0 0.00 0.00 0.00 65 1015.8
20260507211106 18 268 3.2 9.7 0.00 0.00 0.00 63 1015.8
20260507210606 18 261 3.2 8.0 0.00 0.00 0.00 63 1015.9
20260507210107 18 270 4.8 11.3 0.00 0.00 0.00 64 1015.9
20260507205606 18 280 4.8 11.3 0.00 0.00 0.00 64 1015.8
20260507205106 18 270 4.8 9.7 0.00 0.00 0.00 64 1015.9
20260507204607 18 270 3.2 8.0 0.00 0.00 0.00 64 1015.9
20260507203106 18 279 4.8 11.3 0.00 0.00 0.00 65 1015.8
20260507202607 18 255 4.8 12.9 0.00 0.00 0.00 65 1015.9
20260507202106 18 278 4.8 11.3 0.00 0.00 0.00 65 1015.9
20260507201606 18 296 4.8 11.3 0.00 0.00 0.00 65 1015.9
20260507201106 18 248 4.8 11.3 0.00 0.00 0.00 65 1015.9
20260507200606 18 280 4.8 11.3 0.00 0.00 0.00 65 1016.1
20260507200107 18 283 8.0 12.9 0.00 0.00 0.00 65 1015.9
20260507195606 18 284 8.0 14.5 0.00 0.00 0.00 64 1016.0
20260507195106 18 270 8.0 12.9 0.00 0.00 0.00 64 1016.2
20260507194607 18 282 6.4 9.7 0.00 0.00 0.00 64 1016.0
20260507194106 18 306 4.8 14.5 0.00 0.00 0.00 64 1016.2
20260507193606 18 236 8.0 14.5 0.00 0.00 0.00 64 1016.3
20260507192606 18 248 8.0 12.9 0.00 0.00 0.00 64 1016.2
20260507191606 19 277 6.4 14.5 0.00 0.00 0.00 64 1016.2
20260507191106 19 282 9.7 16.1 0.00 0.00 0.00 64 1016.1
20260507190606 19 240 4.8 12.9 0.00 0.00 0.00 64 1016.2
20260507185606 19 239 4.8 12.9 0.00 0.00 0.00 64 1015.9
20260507185106 19 330 6.4 19.3 0.00 0.00 0.00 64 1016.0
20260507184606 19 259 6.4 12.9 0.00 0.00 0.00 64 1016.0
20260507184106 19 278 8.0 14.5 0.00 0.00 0.00 64 1015.9
20260507183607 19 278 4.8 14.5 0.00 0.00 0.00 64 1016.1
20260507183107 19 270 9.7 12.9 0.00 0.00 0.00 63 1015.9
20260507182106 19 241 6.4 14.5 0.00 0.00 0.00 63 1015.9
20260507181606 19 312 8.0 16.1 0.00 0.00 0.00 63 1016.0
20260507181106 19 263 8.0 20.9 0.00 0.00 0.00 63 1015.9
20260507180606 19 248 8.0 16.1 0.00 0.00 0.00 63 1015.9
20260507180106 19 257 8.0 16.1 0.00 0.00 0.00 63 1015.8
20260507175606 19 270 4.8 16.1 0.00 0.00 0.00 63 1015.8
20260507174606 19 257 8.0 14.5 0.00 0.00 0.00 62 1015.2
20260507173606 20 264 6.4 16.1 0.00 0.00 0.00 62 1015.3
20260507173106 20 258 9.7 19.3 0.00 0.00 0.00 62 1015.6
20260507172606 20 249 8.0 19.3 0.00 0.00 0.00 62 1015.3
20260507172106 20 255 6.4 19.3 0.00 0.00 0.00 62 1015.6
20260507171606 20 258 11.3 20.9 0.00 0.00 0.00 62 1015.6
20260507171106 20 286 9.7 19.3 0.00 0.00 0.00 62 1015.5
20260507170606 20 270 8.0 22.5 0.00 0.00 0.00 62 1015.6
20260507170106 20 248 9.7 19.3 0.00 0.00 0.00 62 1015.7
20260507165606 20 308 9.7 20.9 0.00 0.00 0.00 62 1015.5
20260507164606 20 315 11.3 20.9 0.00 0.00 0.00 63 1015.2
20260507164106 20 280 14.5 25.7 0.00 0.00 0.00 63 1015.2
20260507163607 20 292 9.7 24.1 0.00 0.00 0.00 63 1015.1
20260507163106 20 225 8.0 20.9 0.00 0.00 0.00 63 1015.0
20260507162106 21 256 8.0 14.5 0.00 0.00 0.00 64 1014.9
20260507161606 21 279 9.7 14.5 0.00 0.00 0.00 62 1014.9
20260507161107 21 281 8.0 14.5 0.00 0.00 0.00 63 1014.8
20260507160606 21 284 6.4 20.9 0.00 0.00 0.00 64 1014.8
20260507160106 21 248 8.0 19.3 0.00 0.00 0.00 64 1014.9
20260507155607 21 282 8.0 14.5 0.00 0.00 0.00 64 1014.8
20260507155106 21 270 9.7 16.1 0.00 0.00 0.00 64 1014.9
20260507154606 21 220 8.0 19.3 0.00 0.00 0.00 64 1015.0
20260507154106 21 331 9.7 14.5 0.00 0.00 0.00 64 1015.0
20260507153606 21 243 8.0 14.5 0.00 0.00 0.00 64 1015.0
20260507153106 21 253 9.7 16.1 0.00 0.00 0.00 64 1014.9
20260507152607 21 271 9.7 16.1 0.00 0.00 0.00 64 1014.8
20260507152107 21 225 8.0 19.3 0.00 0.00 0.00 64 1014.9
20260507150606 22 225 6.4 16.1 0.00 0.00 0.00 63 1014.9
20260507145107 21 300 9.7 16.1 0.00 0.00 0.00 64 1014.9
20260507144606 22 315 8.0 19.3 0.00 0.00 0.00 64 1014.9
20260507144106 22 239 9.7 16.1 0.00 0.00 0.00 64 1014.7
20260507143606 22 276 6.4 19.3 0.00 0.00 0.00 64 1014.9
20260507143107 22 315 11.3 16.1 0.00 0.00 0.00 63 1014.9
20260507142607 22 248 8.0 16.1 0.00 0.00 0.00 64 1015.0
20260507142106 22 217 8.0 20.9 0.00 0.00 0.00 64 1014.8
20260507141606 22 284 9.7 20.9 0.00 0.00 0.00 63 1015.0
20260507141106 22 270 4.8 20.9 0.00 0.00 0.00 63 1015.1
20260507140606 21 248 9.7 22.5 0.00 0.00 0.00 63 1015.0
20260507140106 21 265 12.9 22.5 0.00 0.00 0.00 63 1015.0
20260507135106 22 258 8.0 20.9 0.00 0.00 0.00 63 1015.2
20260507134606 21 270 11.3 19.3 0.00 0.00 0.00 63 1015.1
20260507133607 22 248 9.7 20.9 0.00 0.00 0.00 64 1015.3
20260507133106 22 233 9.7 22.5 0.00 0.00 0.00 64 1015.3
20260507132606 22 281 12.9 22.5 0.00 0.00 0.00 64 1015.1
20260507132106 22 262 9.7 20.9 0.00 0.00 0.00 64 1015.2
20260507131606 22 270 8.0 20.9 0.00 0.00 0.00 64 1015.4
20260507131106 22 286 8.0 20.9 0.00 0.00 0.00 63 1015.2
20260507130606 22 278 9.7 16.1 0.00 0.00 0.00 64 1015.2
20260507130106 22 292 11.3 20.9 0.00 0.00 0.00 64 1015.2
20260507125107 23 280 8.0 16.1 0.00 0.00 0.00 63 1015.2
20260507124607 22 261 11.3 16.1 0.00 0.00 0.00 63 1015.2
20260507124106 24 255 3.2 9.7 0.00 0.00 0.00 62 1015.2
20260507123606 23 112 1.6 8.0 0.00 0.00 0.00 63 1015.1
20260507123106 23 61 3.2 9.7 0.00 0.00 0.00 63 1015.1
20260507122607 23 68 3.2 9.7 0.00 0.00 0.00 63 1015.4
20260507122107 23 15 4.8 9.7 0.00 0.00 0.00 63 1015.2
20260507121606 23 13 3.2 8.0 0.00 0.00 0.00 63 1015.3
20260507121106 23 346 3.2 4.8 0.00 0.00 0.00 63 1015.2
20260507120606 24 19 3.2 8.0 0.00 0.00 0.00 63 1015.3
20260507120106 23 36 1.6 11.3 0.00 0.00 0.00 63 1015.2
20260507115606 23 90 3.2 11.3 0.00 0.00 0.00 63 1015.3
20260507114607 22 135 8.0 12.9 0.00 0.00 0.00 63 1015.2
20260507114106 23 88 4.8 14.5 0.00 0.00 0.00 62 1015.2
20260507113606 22 112 8.0 14.5 0.00 0.00 0.00 62 1015.2
20260507112607 22 158 8.0 14.5 0.00 0.00 0.00 62 1015.3
20260507112106 22 112 4.8 11.3 0.00 0.00 0.00 62 1015.3
20260507111606 23 112 3.2 8.0 0.00 0.00 0.00 62 1015.2
20260507111106 22 128 4.8 11.3 0.00 0.00 0.00 61 1015.3
20260507110606 22 135 4.8 12.9 0.00 0.00 0.00 60 1015.4
20260507110106 22 128 4.8 12.9 0.00 0.00 0.00 61 1015.4
20260507105106 21 97 9.7 14.5 0.00 0.00 0.00 61 1015.3
20260507104106 21 141 8.0 16.1 0.00 0.00 0.00 61 1015.6
20260507103606 21 119 8.0 14.5 0.00 0.00 0.00 61 1015.5
20260507103106 21 112 9.7 14.5 0.00 0.00 0.00 61 1015.5
20260507102606 21 172 4.8 16.1 0.00 0.00 0.00 61 1015.5
20260507102107 21 112 8.0 14.5 0.00 0.00 0.00 61 1015.5
20260507101606 22 90 4.8 12.9 0.00 0.00 0.00 61 1015.6
20260507101106 21 112 8.0 12.9 0.00 0.00 0.00 60 1015.4
20260507100606 22 106 4.8 12.9 0.00 0.00 0.00 60 1015.5
20260507100106 22 135 8.0 12.9 0.00 0.00 0.00 60 1015.5
20260507095607 23 112 3.2 8.0 0.00 0.00 0.00 61 1015.3
20260507095106 23 248 3.2 8.0 0.00 0.00 0.00 59 1015.6
20260507094106 23 280 3.2 8.0 0.00 0.00 0.00 60 1015.5
20260507093606 22 263 3.2 8.0 0.00 0.00 0.00 61 1015.7
20260507093107 23 237 4.8 9.7 0.00 0.00 0.00 61 1015.8
20260507092106 23 272 3.2 11.3 0.00 0.00 0.00 61 1016.0
20260507091106 22 267 6.4 11.3 0.00 0.00 0.00 61 1016.2
20260507090607 22 276 4.8 9.7 0.00 0.00 0.00 61 1016.2
20260507090106 22 225 8.0 12.9 0.00 0.00 0.00 61 1016.1
20260507085606 22 225 3.2 9.7 0.00 0.00 0.00 61 1016.3
20260507085106 22 236 4.8 11.3 0.00 0.00 0.00 61 1016.2
20260507084107 22 240 4.8 9.7 0.00 0.00 0.00 61 1016.2
20260507083606 22 253 4.8 9.7 0.00 0.00 0.00 61 1016.3
20260507083106 23 267 3.2 11.3 0.00 0.00 0.00 61 1016.3
20260507082606 22 292 8.0 11.3 0.00 0.00 0.00 61 1016.3
20260507082106 22 275 4.8 9.7 0.00 0.00 0.00 61 1016.1
20260507081606 22 259 4.8 9.7 0.00 0.00 0.00 61 1016.2
20260507081106 22 270 3.2 9.7 0.00 0.00 0.00 61 1016.3
20260507080606 21 270 4.8 9.7 0.00 0.00 0.00 61 1016.2
20260507080106 21 239 4.8 9.7 0.00 0.00 0.00 61 1016.2
20260507075606 21 274 4.8 11.3 0.00 0.00 0.00 61 1016.2
20260507075106 21 275 8.0 11.3 0.00 0.00 0.00 61 1016.3
20260507074106 21 262 4.8 9.7 0.00 0.00 0.00 60 1016.4
20260507073607 21 270 3.2 4.8 0.00 0.00 0.00 60 1016.3
20260507073106 21 242 3.2 8.0 0.00 0.00 0.00 60 1016.2
20260507072606 21 258 3.2 9.7 0.00 0.00 0.00 60 1016.3
20260507072107 21 274 4.8 11.3 0.00 0.00 0.00 60 1016.2
20260507071606 21 262 3.2 8.0 0.00 0.00 0.00 60 1016.2
20260507070607 20 270 9.7 11.3 0.00 0.00 0.00 60 1016.2
20260507070106 21 280 4.8 9.7 0.00 0.00 0.00 60 1016.3
20260507065606 20 262 3.2 9.7 0.00 0.00 0.00 60 1016.4
20260507065106 20 234 4.8 9.7 0.00 0.00 0.00 59 1016.2
20260507064606 20 275 4.8 9.7 0.00 0.00 0.00 58 1016.3
20260507064106 19 286 3.2 8.0 0.00 0.00 0.00 57 1016.2
20260507063609 20 284 3.2 8.0 0.00 0.00 0.00 56 1016.1
20260507063106 20 22 1.6 8.0 0.00 0.00 0.00 55 1016.2
20260507062606 19 37 4.8 9.7 0.00 0.00 0.00 55 1016.2
20260507062106 19 29 4.8 9.7 0.00 0.00 0.00 55 1016.1
20260507061607 20 22 0.0 4.8 0.00 0.00 0.00 55 1016.1
20260507061107 19 45 3.2 8.0 0.00 0.00 0.00 55 1016.3
20260507060606 19 0 4.8 9.7 0.00 0.00 0.00 56 1016.2
20260507060106 19 355 1.6 4.8 0.00 0.00 0.00 55 1016.1
20260507055606 19 321 3.2 4.8 0.00 0.00 0.00 56 1016.0
20260507055106 20 346 1.6 4.8 0.00 0.00 0.00 55 1016.0
20260507053606 20 22 1.6 3.2 0.00 0.00 0.00 55 1015.8
20260507053106 19 14 1.6 3.2 0.00 0.00 0.00 55 1015.8
20260507052606 19 0 1.6 3.2 0.00 0.00 0.00 56 1015.9
20260507052107 19 0 1.6 3.2 0.00 0.00 0.00 56 1015.8
20260507051607 19 0 1.6 3.2 0.00 0.00 0.00 56 1015.6
20260507050606 20 338 1.6 3.2 0.00 0.00 0.00 55 1015.5
20260507050106 20 270 1.6 1.6 0.00 0.00 0.00 55 1015.6
20260507045106 19 270 1.6 3.2 0.00 0.00 0.00 56 1015.3
20260507044606 20 270 0.0 1.6 0.00 0.00 0.00 55 1015.2
20260507044106 20 270 0.0 1.6 0.00 0.00 0.00 55 1015.3
20260507043607 19 270 0.0 1.6 0.00 0.00 0.00 55 1015.1
20260507043106 19 270 0.0 0.0 0.00 0.00 0.00 55 1015.0
20260507042606 18 270 0.0 0.0 0.00 0.00 0.00 56 1014.9
20260507041607 17 270 0.0 1.6 0.00 0.00 0.00 56 1015.0
20260507041106 17 270 0.0 1.6 0.00 0.00 0.00 56 1014.9
20260507040606 17 270 0.0 1.6 0.00 0.00 0.00 56 1014.9
20260507040106 16 270 1.6 1.6 0.00 0.00 0.00 57 1014.7
20260507035607 16 270 0.0 1.6 0.00 0.00 0.00 57 1014.5
20260507035106 16 270 0.0 1.6 0.00 0.00 0.00 57 1014.5
20260507034606 16 248 0.0 0.0 0.00 0.00 0.00 57 1014.6
20260507034107 15 248 0.0 1.6 0.00 0.00 0.00 57 1014.5
20260507033607 15 270 1.6 3.2 0.00 0.00 0.00 57 1014.4
20260507033106 15 257 1.6 1.6 0.00 0.00 0.00 57 1014.5
20260507032606 15 270 0.0 1.6 0.00 0.00 0.00 57 1014.4
20260507032106 15 248 1.6 3.2 0.00 0.00 0.00 57 1014.4
20260507031606 15 270 1.6 3.2 0.00 0.00 0.00 58 1014.4
20260507030607 15 270 0.0 0.0 0.00 0.00 0.00 58 1014.2
20260507030107 15 270 0.0 1.6 0.00 0.00 0.00 58 1014.2
20260507025606 15 248 1.6 1.6 0.00 0.00 0.00 58 1014.3
20260507025106 15 270 1.6 1.6 0.00 0.00 0.00 58 1014.3
20260507024607 15 270 1.6 1.6 0.00 0.00 0.00 58 1014.5
20260507024106 15 270 1.6 1.6 0.00 0.00 0.00 58 1014.4
20260507023606 15 270 1.6 3.2 0.00 0.00 0.00 58 1014.3
20260507023106 15 262 1.6 1.6 0.00 0.00 0.00 59 1014.0